This demonstration page uses our WeatherBlox Daily Observations layout. Learn more.

Left ArrowRight Arrow

Hourly Observations for May 8, 2019

Temp ( °F °C ) Dew Point ( °F °C ) Humidity (%) Winds ( mph kmh ) Pressure ( in mb ) Visibility ( mi km ) Precip ( " mm )
12:15 am 00:15 Clear 55 13 54 12 94 94 NE 8 13 30.16 1021 10 16.0934 N/A
12:35 am 00:35 Clear 54 12 54 12 100 100 NE 10 17 30.16 1021 10 16.0934 N/A
12:55 am 00:55 Clear 54 12 54 12 100 100 ENE 9 15 30.15 1021 10 16.0934 N/A
1:15 am 01:15 Mostly Cloudy 54 12 52 11 94 94 ENE 9 15 30.14 1021 10 16.0934 N/A
1:35 am 01:35 Partly Cloudy 54 12 52 11 94 94 NE 7 11 30.15 1021 10 16.0934 N/A
1:55 am 01:55 Partly Cloudy 54 12 52 11 94 94 ENE 9 15 30.14 1021 10 16.0934 N/A
2:16 am 02:16 Partly Cloudy 54 12 52 11 94 94 ENE 9 15 30.14 1021 10 16.0934 N/A
2:35 am 02:35 Clear 52 11 50 10 94 94 ENE 8 13 30.15 1021 10 16.0934 N/A
2:55 am 02:55 Clear 52 11 50 10 94 94 NE 9 15 30.14 1021 10 16.0934 N/A
3:15 am 03:15 Clear 50 10 48 9 94 94 NE 9 15 30.14 1021 10 16.0934 N/A
3:35 am 03:35 Clear 50 10 48 9 94 94 NE 7 11 30.14 1021 10 16.0934 N/A
3:56 am 03:56 Clear 50 10 48 9 94 94 ENE 8 13 30.14 1021 10 16.0934 N/A
4:15 am 04:15 Clear 48 9 48 9 100 100 NE 8 13 30.14 1021 10 16.0934 N/A
4:35 am 04:35 Clear 48 9 48 9 100 100 NE 7 11 30.14 1021 10 16.0934 N/A
4:55 am 04:55 Clear 48 9 46 8 94 94 ENE 8 13 30.14 1021 10 16.0934 N/A
5:15 am 05:15 Mostly Cloudy 48 9 46 8 94 94 ENE 7 11 30.14 1021 10 16.0934 N/A
5:36 am 05:36 Cloudy 48 9 46 8 94 94 ENE 8 13 30.14 1021 10 16.0934 N/A
5:55 am 05:55 Partly Cloudy 48 9 46 8 94 94 ENE 10 17 30.15 1021 10 16.0934 N/A
6:15 am 06:15 Mostly Cloudy 48 9 46 8 94 94 ENE 12 19 30.15 1021 10 16.0934 N/A
6:35 am 06:35 Partly Cloudy 48 9 46 8 94 94 ENE 8 13 30.15 1021 10 16.0934 N/A
6:55 am 06:55 Partly Cloudy 48 9 46 8 94 94 ENE 12 19 30.14 1021 10 16.0934 N/A
7:15 am 07:15 Partly Cloudy 48 9 46 8 94 94 ENE 10 17 30.13 1020 10 16.0934 N/A
7:35 am 07:35 Partly Cloudy 48 9 46 8 94 94 ENE 9 15 30.14 1021 10 16.0934 N/A
7:55 am 07:55 Sunny 50 10 46 8 88 88 E 9 15 30.14 1021 10 16.0934 N/A
8:16 am 08:16 Sunny 52 11 48 9 88 88 E 9 15 30.14 1021 10 16.0934 N/A
8:35 am 08:35 Sunny 52 11 48 9 88 88 E 10 17 30.13 1020 10 16.0934 N/A
8:55 am 08:55 Sunny 54 12 48 9 82 82 E 14 22 30.11 1020 10 16.0934 N/A
9:15 am 09:15 Sunny 54 12 48 9 82 82 E 12 19 30.11 1020 10 16.0934 N/A
9:35 am 09:35 Sunny 57 14 50 10 77 77 E 10 17 30.1 1019 10 16.0934 N/A
9:55 am 09:55 Sunny 57 14 52 11 82 82 E 10 17 30.11 1020 10 16.0934 N/A
10:15 am 10:15 Sunny 59 15 52 11 77 77 E 8 13 30.1 1019 10 16.0934 N/A
10:35 am 10:35 Mostly Cloudy 59 15 54 12 82 82 ESE 8 13 30.1 1019 10 16.0934 N/A
10:56 am 10:56 Mostly Cloudy 63 17 55 13 77 77 ESE 7 11 30.09 1019 10 16.0934 N/A
11:15 am 11:15 Partly Cloudy 64 18 55 13 73 73 ESE 9 15 30.07 1018 10 16.0934 N/A
11:35 am 11:35 Partly Cloudy 64 18 57 14 78 78 ESE 9 15 30.07 1018 10 16.0934 N/A
11:55 am 11:55 Mostly Cloudy 66 19 57 14 73 73 ESE 12 19 30.06 1018 10 16.0934 N/A
12:15 pm 12:15 Sunny 68 20 59 15 73 73 ESE 13 20 30.05 1018 10 16.0934 N/A
12:36 pm 12:36 Sunny 70 21 59 15 69 69 ESE 9 15 30.04 1017 10 16.0934 N/A
12:55 pm 12:55 Sunny 72 22 61 16 69 69 SE 10 17 30.02 1017 10 16.0934 N/A
1:15 pm 13:15 Sunny 73 23 61 16 65 65 ESE 13 20 30 1016 10 16.0934 N/A
1:35 pm 13:35 Sunny 75 24 61 16 61 61 SE 12 19 29.98 1015 10 16.0934 N/A
1:55 pm 13:55 Sunny 75 24 63 17 65 65 SE 10 17 29.98 1015 10 16.0934 N/A
2:16 pm 14:16 Sunny 77 25 63 17 61 61 SE 12 19 29.97 1015 10 16.0934 N/A
2:35 pm 14:35 Sunny 79 26 63 17 58 58 SE 7 11 29.96 1015 10 16.0934 N/A
2:55 pm 14:55 Sunny 79 26 63 17 58 58 S 10 17 29.95 1014 10 16.0934 N/A
3:15 pm 15:15 Partly Cloudy 81 27 63 17 54 54 SSE 10 17 29.94 1014 10 16.0934 N/A
3:35 pm 15:35 Sunny 81 27 63 17 54 54 SE 12 19 29.92 1013 10 16.0934 N/A
3:56 pm 15:56 Sunny 81 27 63 17 54 54 SE 12 19 29.92 1013 10 16.0934 N/A
4:15 pm 16:15 Sunny 81 27 63 17 54 54 SSE 10 17 29.91 1013 10 16.0934 N/A
4:35 pm 16:35 Sunny 81 27 63 17 54 54 SE 15 24 29.9 1012 10 16.0934 N/A
4:55 pm 16:55 Sunny 81 27 64 18 58 58 SE 15 24 29.88 1012 10 16.0934 N/A
5:15 pm 17:15 Sunny 81 27 64 18 58 58 SSE 14 22 29.88 1012 10 16.0934 N/A
5:35 pm 17:35 Sunny 81 27 64 18 58 58 SE 16 26 29.87 1011 10 16.0934 N/A
5:55 pm 17:55 Sunny 81 27 63 17 54 54 SSE 18 30 29.87 1011 10 16.0934 N/A
6:15 pm 18:15 Sunny 81 27 64 18 58 58 SE 13 20 29.86 1011 10 16.0934 N/A
6:35 pm 18:35 Sunny 81 27 64 18 58 58 SSE 10 17 29.86 1011 10 16.0934 N/A
6:56 pm 18:56 Sunny 81 27 64 18 58 58 SSE 10 17 29.85 1011 10 16.0934 N/A
7:15 pm 19:15 Sunny 81 27 63 17 54 54 SSE 15 24 29.85 1011 10 16.0934 N/A
7:35 pm 19:35 Sunny 79 26 63 17 58 58 SSE 13 20 29.84 1010 10 16.0934 N/A
7:55 pm 19:55 Sunny 79 26 63 17 58 58 SSE 15 24 29.84 1010 10 16.0934 N/A
8:15 pm 20:15 Sunny 77 25 63 17 61 61 SSE 10 17 29.83 1010 10 16.0934 N/A
8:36 pm 20:36 Sunny 75 24 63 17 65 65 SSE 7 11 29.84 1010 10 16.0934 N/A
8:55 pm 20:55 Clear 73 23 64 18 74 74 SSE 7 11 29.85 1011 10 16.0934 N/A
9:15 pm 21:15 Partly Cloudy 73 23 64 18 74 74 SE 7 11 29.85 1011 10 16.0934 N/A
9:35 pm 21:35 Clear 72 22 64 18 78 78 SE 7 11 29.85 1011 10 16.0934 N/A
9:55 pm 21:55 Clear 72 22 64 18 78 78 SE 7 11 29.86 1011 10 16.0934 N/A
10:15 pm 22:15 Clear 72 22 64 18 78 78 SSE 8 13 29.86 1011 10 16.0934 N/A
10:35 pm 22:35 Clear 72 22 64 18 78 78 SSE 8 13 29.86 1011 10 16.0934 N/A
10:55 pm 22:55 Clear 72 22 64 18 78 78 SSE 8 13 29.86 1011 10 16.0934 N/A
11:15 pm 23:15 Clear 72 22 64 18 78 78 SSE 8 13 29.85 1011 10 16.0934 N/A
11:35 pm 23:35 Clear 70 21 64 18 83 83 SSE 8 13 29.85 1011 10 16.0934 N/A
11:55 pm 23:55 Clear 70 21 64 18 83 83 SSE 8 13 29.84 1010 10 16.0934 N/A

Powered by AerisWeather